<?xml version="1.0" encoding="UTF-8" standalone="no" ?><gpx xmlns="http://www.topografix.com/GPX/1/1" xmlns:gpxx="http://www.garmin.com/xmlschemas/GpxExtensions/v3" xmlns:wptx1="http://www.garmin.com/xmlschemas/WaypointExtension/v1" xmlns:gpxtpx="http://www.garmin.com/xmlschemas/TrackPointExtension/v1" creator="GuideVTT.com" version="1.1" xmlns:xsi="http://www.w3.org/2001/XMLSchema-instance" xsi:schemaLocation="http://www.topografix.com/GPX/1/1 http://www.topografix.com/GPX/1/1/gpx.xsd http://www.garmin.com/xmlschemas/GpxExtensions/v3 http://www8.garmin.com/xmlschemas/GpxExtensionsv3.xsd http://www.garmin.com/xmlschemas/WaypointExtension/v1 http://www8.garmin.com/xmlschemas/WaypointExtensionv1.xsd http://www.garmin.com/xmlschemas/TrackPointExtension/v1 http://www.garmin.com/xmlschemas/TrackPointExtensionv1.xsd">
<metadata><link href="http://www.garmin.com"><text>Garmin International</text></link><time>2013-06-22T15:13:50Z</time></metadata>
<trk><name>ne_tn_741_rp.gpx</name><extensions><gpxx:TrackExtension><gpxx:DisplayColor>Cyan</gpxx:DisplayColor></gpxx:TrackExtension></extensions><trkseg>
<trkpt lat="47.05208708" lon="7.03973176"><ele>0</ele><time>2008-04-11T16:16:44Z</time></trkpt>
<trkpt lat="47.05211917" lon="7.03861284"><ele>0</ele><time>2008-04-11T16:16:44Z</time></trkpt>
<trkpt lat="47.05225088" lon="7.03769059"><ele>0</ele><time>2008-04-11T16:16:44Z</time></trkpt>
<trkpt lat="47.05220199" lon="7.03657227"><ele>0</ele><time>2008-04-11T16:16:44Z</time></trkpt>
<trkpt lat="47.05252235" lon="7.03558278"><ele>0</ele><time>2008-04-11T16:16:44Z</time></trkpt>
<trkpt lat="47.05251680" lon="7.03400350"><ele>0</ele><time>2008-04-11T16:16:44Z</time></trkpt>
<trkpt lat="47.05183707" lon="7.03256092"><ele>0</ele><time>2008-04-11T16:16:44Z</time></trkpt>
<trkpt lat="47.05115452" lon="7.03032876"><ele>0</ele><time>2008-04-11T16:16:44Z</time></trkpt>
<trkpt lat="47.05086911" lon="7.02848844"><ele>0</ele><time>2008-04-11T16:16:44Z</time></trkpt>
<trkpt lat="47.04947612" lon="7.02632763"><ele>0</ele><time>2008-04-11T16:16:44Z</time></trkpt>
<trkpt lat="47.04860930" lon="7.02541309"><ele>0</ele><time>2008-04-11T16:16:44Z</time></trkpt>
<trkpt lat="47.04780609" lon="7.02468232"><ele>0</ele><time>2008-04-11T16:16:44Z</time></trkpt>
<trkpt lat="47.04649027" lon="7.02398185"><ele>0</ele><time>2008-04-11T16:16:44Z</time></trkpt>
<trkpt lat="47.04500231" lon="7.02294061"><ele>0</ele><time>2008-04-11T16:16:44Z</time></trkpt>
<trkpt lat="47.04351122" lon="7.02104413"><ele>0</ele><time>2008-04-11T16:16:44Z</time></trkpt>
<trkpt lat="47.04198461" lon="7.01927961"><ele>0</ele><time>2008-04-11T16:16:44Z</time></trkpt>
<trkpt lat="47.04071074" lon="7.01776321"><ele>0</ele><time>2008-04-11T16:16:44Z</time></trkpt>
<trkpt lat="47.03940189" lon="7.01652348"><ele>0</ele><time>2008-04-11T16:16:44Z</time></trkpt>
<trkpt lat="47.03887365" lon="7.01719868"><ele>0</ele><time>2008-04-11T16:16:44Z</time></trkpt>
<trkpt lat="47.03783289" lon="7.01548322"><ele>0</ele><time>2008-04-11T16:16:44Z</time></trkpt>
<trkpt lat="47.03656588" lon="7.01340122"><ele>0</ele><time>2008-04-11T16:16:44Z</time></trkpt>
<trkpt lat="47.03624735" lon="7.01240381"><ele>0</ele><time>2008-04-11T16:16:44Z</time></trkpt>
<trkpt lat="47.03480302" lon="7.01103382"><ele>0</ele><time>2008-04-11T16:16:44Z</time></trkpt>
<trkpt lat="47.03326175" lon="7.01020409"><ele>0</ele><time>2008-04-11T16:16:44Z</time></trkpt>
<trkpt lat="47.03168321" lon="7.00903266"><ele>0</ele><time>2008-04-11T16:16:44Z</time></trkpt>
<trkpt lat="47.03011385" lon="7.00791384"><ele>0</ele><time>2008-04-11T16:16:44Z</time></trkpt>
<trkpt lat="47.02898410" lon="7.00648897"><ele>0</ele><time>2008-04-11T16:16:44Z</time></trkpt>
<trkpt lat="47.02695577" lon="7.00532137"><ele>0</ele><time>2008-04-11T16:16:44Z</time></trkpt>
<trkpt lat="47.02582142" lon="7.00506744"><ele>0</ele><time>2008-04-11T16:16:44Z</time></trkpt>
<trkpt lat="47.02402370" lon="7.00304307"><ele>0</ele><time>2008-04-11T16:16:44Z</time></trkpt>
<trkpt lat="47.02265872" lon="7.00127839"><ele>0</ele><time>2008-04-11T16:16:44Z</time></trkpt>
<trkpt lat="47.02085766" lon="6.99839933"><ele>0</ele><time>2008-04-11T16:16:44Z</time></trkpt>
<trkpt lat="47.01954606" lon="6.99650289"><ele>0</ele><time>2008-04-11T16:16:44Z</time></trkpt>
<trkpt lat="47.01844955" lon="6.99440748"><ele>0</ele><time>2008-04-11T16:16:44Z</time></trkpt>
<trkpt lat="47.01701522" lon="6.99335401"><ele>0</ele><time>2008-04-11T16:16:44Z</time></trkpt>
<trkpt lat="47.01738025" lon="6.99703368"><ele>0</ele><time>2008-04-11T16:16:44Z</time></trkpt>
<trkpt lat="47.01946119" lon="7.00017328"><ele>0</ele><time>2008-04-11T16:16:44Z</time></trkpt>
<trkpt lat="47.02172225" lon="7.00339059"><ele>0</ele><time>2008-04-11T16:16:44Z</time></trkpt>
<trkpt lat="47.02146583" lon="7.00456333"><ele>0</ele><time>2008-04-11T16:16:44Z</time></trkpt>
<trkpt lat="47.02232107" lon="7.00713454"><ele>0</ele><time>2008-04-11T16:16:44Z</time></trkpt>
<trkpt lat="47.02179020" lon="7.00949329"><ele>0</ele><time>2008-04-11T16:16:44Z</time></trkpt>
<trkpt lat="47.02089321" lon="7.01017129"><ele>0</ele><time>2008-04-11T16:16:44Z</time></trkpt>
<trkpt lat="47.01900991" lon="7.01169890"><ele>0</ele><time>2008-04-11T16:16:44Z</time></trkpt>
<trkpt lat="47.01727216" lon="7.01367244"><ele>0</ele><time>2008-04-11T16:16:44Z</time></trkpt>
<trkpt lat="47.01553486" lon="7.01822364"><ele>0</ele><time>2008-04-11T16:16:44Z</time></trkpt>
<trkpt lat="47.01350949" lon="7.02029114"><ele>0</ele><time>2008-04-11T16:16:44Z</time></trkpt>
<trkpt lat="47.01189872" lon="7.02259199"><ele>0</ele><time>2008-04-11T16:16:44Z</time></trkpt>
<trkpt lat="47.01155481" lon="7.02450156"><ele>0</ele><time>2008-04-11T16:16:44Z</time></trkpt>
<trkpt lat="47.01065536" lon="7.02452165"><ele>0</ele><time>2008-04-11T16:16:44Z</time></trkpt>
<trkpt lat="47.01233313" lon="7.02832257"><ele>0</ele><time>2008-04-11T16:16:44Z</time></trkpt>
<trkpt lat="47.01351302" lon="7.03127264"><ele>0</ele><time>2008-04-11T16:16:44Z</time></trkpt>
<trkpt lat="47.01445171" lon="7.03217299"><ele>0</ele><time>2008-04-11T16:16:44Z</time></trkpt>
<trkpt lat="47.01707204" lon="7.03294229"><ele>0</ele><time>2008-04-11T16:16:44Z</time></trkpt>
<trkpt lat="47.01963612" lon="7.03306759"><ele>0</ele><time>2008-04-11T16:16:44Z</time></trkpt>
<trkpt lat="47.02183020" lon="7.03285371"><ele>0</ele><time>2008-04-11T16:16:44Z</time></trkpt>
<trkpt lat="47.02529274" lon="7.03268283"><ele>0</ele><time>2008-04-11T16:16:44Z</time></trkpt>
<trkpt lat="47.02880059" lon="7.03260368"><ele>0</ele><time>2008-04-11T16:16:44Z</time></trkpt>
<trkpt lat="47.03105142" lon="7.03317866"><ele>0</ele><time>2008-04-11T16:16:44Z</time></trkpt>
<trkpt lat="47.03263017" lon="7.03448235"><ele>0</ele><time>2008-04-11T16:16:44Z</time></trkpt>
<trkpt lat="47.03475230" lon="7.03683458"><ele>0</ele><time>2008-04-11T16:16:44Z</time></trkpt>
<trkpt lat="47.03593335" lon="7.03760200"><ele>0</ele><time>2008-04-11T16:16:44Z</time></trkpt>
<trkpt lat="47.03715390" lon="7.03938227"><ele>0</ele><time>2008-04-11T16:16:44Z</time></trkpt>
<trkpt lat="47.03846656" lon="7.04179351"><ele>0</ele><time>2008-04-11T16:16:44Z</time></trkpt>
<trkpt lat="47.04023239" lon="7.04521470"><ele>0</ele><time>2008-04-11T16:16:44Z</time></trkpt>
<trkpt lat="47.04180829" lon="7.04836117"><ele>0</ele><time>2008-04-11T16:16:44Z</time></trkpt>
<trkpt lat="47.04303019" lon="7.05058927"><ele>0</ele><time>2008-04-11T16:16:44Z</time></trkpt>
<trkpt lat="47.04484234" lon="7.05181312"><ele>0</ele><time>2008-04-11T16:16:44Z</time></trkpt>
<trkpt lat="47.04399340" lon="7.05347728"><ele>0</ele><time>2008-04-11T16:16:44Z</time></trkpt>
<trkpt lat="47.04453968" lon="7.05814484"><ele>0</ele><time>2008-04-11T16:16:44Z</time></trkpt>
<trkpt lat="47.04483196" lon="7.06222211"><ele>0</ele><time>2008-04-11T16:16:44Z</time></trkpt>
<trkpt lat="47.04537276" lon="7.06531075"><ele>0</ele><time>2008-04-11T16:16:44Z</time></trkpt>
<trkpt lat="47.04732653" lon="7.06865290"><ele>0</ele><time>2008-04-11T16:16:44Z</time></trkpt>
<trkpt lat="47.04877227" lon="7.07068275"><ele>0</ele><time>2008-04-11T16:16:44Z</time></trkpt>
<trkpt lat="47.04990399" lon="7.07297806"><ele>0</ele><time>2008-04-11T16:16:44Z</time></trkpt>
<trkpt lat="47.05142162" lon="7.07217807"><ele>0</ele><time>2008-04-11T16:16:44Z</time></trkpt>
<trkpt lat="47.05321218" lon="7.06953359"><ele>0</ele><time>2008-04-11T16:16:44Z</time></trkpt>
<trkpt lat="47.05221228" lon="7.06630287"><ele>0</ele><time>2008-04-11T16:16:44Z</time></trkpt>
<trkpt lat="47.05157819" lon="7.06493854"><ele>0</ele><time>2008-04-11T16:16:44Z</time></trkpt>
<trkpt lat="47.05248385" lon="7.06406361"><ele>0</ele><time>2008-04-11T16:16:44Z</time></trkpt>
<trkpt lat="47.05387061" lon="7.06452773"><ele>0</ele><time>2008-04-11T16:16:44Z</time></trkpt>
<trkpt lat="47.05464242" lon="7.06398273"><ele>0</ele><time>2008-04-11T16:16:44Z</time></trkpt>
<trkpt lat="47.05580254" lon="7.06115798"><ele>0</ele><time>2008-04-11T16:16:44Z</time></trkpt>
<trkpt lat="47.05687051" lon="7.06041339"><ele>0</ele><time>2008-04-11T16:16:44Z</time></trkpt>
<trkpt lat="47.05739980" lon="7.05726388"><ele>0</ele><time>2008-04-11T16:16:44Z</time></trkpt>
<trkpt lat="47.05708366" lon="7.05417301"><ele>0</ele><time>2008-04-11T16:16:44Z</time></trkpt>
<trkpt lat="47.05621603" lon="7.05028329"><ele>0</ele><time>2008-04-11T16:16:44Z</time></trkpt>
<trkpt lat="47.05521277" lon="7.04622358"><ele>0</ele><time>2008-04-11T16:16:44Z</time></trkpt>
<trkpt lat="47.05421295" lon="7.04320375"><ele>0</ele><time>2008-04-11T16:16:44Z</time></trkpt>
<trkpt lat="47.05371437" lon="7.04208871"><ele>0</ele><time>2008-04-11T16:16:44Z</time></trkpt>
<trkpt lat="47.05276553" lon="7.04083225"><ele>0</ele><time>2008-04-11T16:16:44Z</time></trkpt>
<trkpt lat="47.05243966" lon="7.04024242"><ele>0</ele><time>2008-04-11T16:16:44Z</time></trkpt>
</trkseg></trk></gpx>